Flag for U.S.A. Weather past 2 weeks in Bridgeport, Connecticut, U.S.A.

Now
81 °F

Clear.


Feels Like: 86 °F
Forecast: 65 / 83 °F
Wind: 9 mph from Southwest

Location: Sikorsky Memorial Airport

Current Time: Sep 2, 2014 at 11:08:41 PM

Latest Report: Sep 2, 2014 at 9:52 PM


Visibility: 10 mi

Pressure: 29.79 "Hg

Humidity: 77%

Dew point: 73 °F

Location of BridgeportLocation

Historic Weather in Bridgeport — Graph

°F

Bridgeport temperature yesterday

Maximum temperature yesterday: 86 °F (at 2:52 PM)
Minimum temperature yesterday: 75 °F (at 12:52 AM)
Average temperature yesterday: 79 °F

Past Weeks' High & Low Weather Summary

 TemperatureHumidityPressure
High90 °F (Sep 2, 2:52 PM)96% (Sep 1, 2:52 AM)30.28 "Hg (Sep 1, 2:52 AM)
Low59 °F (Aug 29, 5:52 AM)36% (Aug 28, 5:52 PM)29.79 "Hg (Sep 2, 6:52 PM)
Average73 °F72%30.04 "Hg
* Reported Aug 18 9:52 PM — Sep 2 9:52 PM, Bridgeport, Weather by CustomWeather, © 2014

Note: Actual official high and low records may vary slightly from our data, if they occured in-between our weather recording intervals... More about our weather records

Advertising

Bridgeport weather history for previous 24 hours

 ConditionsComfort  
Time TempWeatherWind HumidityBarometerVisibility
9:52 PM
Sep 2
81 °FClear.9 mph77%29.79 "Hg10 mi
8:52 PM82 °FClear.10 mph74%29.79 "Hg10 mi
7:52 PM82 °FSunny.14 mph74%29.79 "Hg10 mi
6:52 PM84 °FSunny.15 mph70%29.79 "Hg10 mi
5:52 PM86 °FSunny.13 mph65%29.80 "Hg10 mi
4:52 PM88 °FPassing clouds.10 mph61%29.81 "Hg10 mi
3:52 PM85 °FSunny.13 mph61%29.81 "Hg10 mi
2:52 PM90 °FSunny.10 mph54%29.83 "Hg10 mi
1:52 PM88 °FSunny.9 mph59%29.86 "Hg10 mi
12:52 PM88 °FPassing clouds.12 mph61%29.88 "Hg10 mi
11:52 AM86 °FSunny.12 mph65%29.90 "Hg10 mi
10:52 AM83 °FScattered clouds.10 mph74%29.91 "Hg10 mi
9:52 AM80 °FPartly sunny.8 mph81%29.93 "Hg10 mi
8:52 AM78 °FSunny.8 mph87%29.92 "Hg9 mi
7:52 AM77 °FSunny.5 mph94%29.92 "Hg9 mi
6:52 AM76 °FFog.3 mph94%29.91 "Hg5 mi
5:52 AM75 °FFog.3 mph94%29.89 "Hg5 mi
4:52 AM75 °FClear.3 mph94%29.89 "Hg8 mi
3:52 AM75 °FClear.3 mph94%29.90 "Hg7 mi
2:52 AM76 °FClear.No wind91%29.91 "Hg8 mi
1:52 AM76 °FPassing clouds.No wind94%29.92 "Hg10 mi
12:52 AM77 °FPassing clouds.6 mph88%29.93 "Hg10 mi
11:52 PM
Sep 1
78 °FPassing clouds.No wind87%29.94 "Hg10 mi
Weather by CustomWeather, © 2014

See weather overviewHow to use our weather pages